Bellaire, MI

5:00 AM EST on February 22, 2018 (GMT -0500)
Antrim County

Weather History for KACB - April, 2014

Change the Weather History Date:

Wednesday, April 9, 2014

  Actual Average (KCVX) Record (KCVX)
Temperature  
Mean Temperature 38 °F -  
Max Temperature 53 °F 46 °F 71 °F (2017)
Min Temperature 24 °F 31 °F 15 °F (2003)
Degree Days  
Heating Degree Days 26    
Moisture  
Dew Point 24 °F    
Average Humidity 57    
Maximum Humidity 94    
Minimum Humidity 32    
Precipitation  
Precipitation 0.00 in - - ()
Sea Level Pressure  
Sea Level Pressure 29.88 in    
Wind  
Wind Speed 3 mph (SSW)    
Max Wind Speed 15 mph    
Max Gust Speed 23 mph    
Visibility 10 miles    
Events      
Averages and records for this station are not official NWS values.
T = Trace of Precipitation, MM = Missing Value Source: NWS Daily Summary

Daily Weather History Graph

Daily Weather History Graph

Search for Another Location

Airport or City:

Trip Planner

Search our weather history database for the weather conditions in past years. The results will help you decide how hot, cold, wet, or windy it might be!

Date:

Astronomy

Apr. 09, 2014 Rise Set
Actual Time 7:06 AM EDT 8:18 PM EDT
Civil Twilight 6:36 AM EDT 8:48 PM EDT
Nautical Twilight 6:00 AM EDT 9:25 PM EDT
Astronomical Twilight 5:22 AM EDT 10:03 PM EDT
Moon 2:53 PM EDT (4/9) 4:09 AM EDT (4/9)
Length of Visible Light 14h 12m
Length of Day
13h 11m
Waxing Gibbous, 71% of the Moon is Illuminated
Apr 9
Waxing Gibbous
Apr 15
Full
Apr 22
Last Quarter
Apr 29
New
May 6
First Quarter

Hourly Weather History & Observations

Time (EDT) Temp. Windchill Dew Point Humidity Pressure Visibility Wind Dir Wind Speed Gust Speed Precip Events Conditions
12:14 AM 34.7 °F - 23.0 °F 62% 29.89 in 10.0 mi Calm Calm - N/A   Clear
12:34 AM 31.3 °F - 24.6 °F 76% 29.90 in 10.0 mi Calm Calm - N/A   Clear
12:54 AM 31.6 °F 28.3 °F 24.8 °F 76% 29.90 in 10.0 mi SSW 3.5 mph - N/A   Clear
1:14 AM 30.7 °F 27.3 °F 24.8 °F 79% 29.90 in 10.0 mi SSW 3.5 mph - N/A   Clear
1:34 AM 28.9 °F - 24.3 °F 83% 29.90 in 10.0 mi Calm Calm - N/A   Clear
1:54 AM 29.5 °F - 25.5 °F 85% 29.90 in 10.0 mi Calm Calm - N/A   Clear
2:14 AM 27.7 °F - 23.9 °F 86% 29.91 in 10.0 mi Calm Calm - N/A   Clear
2:34 AM 28.4 °F - 25.3 °F 88% 29.91 in 10.0 mi Calm Calm - N/A   Clear
2:54 AM 28.0 °F - 24.8 °F 88% 29.91 in 10.0 mi Calm Calm - N/A   Clear
3:14 AM 28.0 °F - 25.0 °F 88% 29.91 in 10.0 mi Calm Calm - N/A   Clear
3:34 AM 28.0 °F - 25.2 °F 89% 29.91 in 10.0 mi Calm Calm - N/A   Clear
3:54 AM 27.0 °F - 24.1 °F 89% 29.91 in 10.0 mi Calm Calm - N/A   Clear
4:15 AM 27.1 °F - 24.4 °F 90% 29.90 in 10.0 mi Calm Calm - N/A   Clear
4:34 AM 26.6 °F - 24.3 °F 91% 29.90 in 10.0 mi Calm Calm - N/A   Clear
4:54 AM 26.6 °F - 24.4 °F 92% 29.90 in 10.0 mi Calm Calm - N/A   Clear
5:15 AM 25.7 °F - 23.9 °F 93% 29.90 in 10.0 mi Calm Calm - N/A   Clear
5:34 AM 25.7 °F - 23.7 °F 92% 29.91 in 10.0 mi Calm Calm - N/A   Clear
5:54 AM 25.5 °F - 23.7 °F 93% 29.91 in 10.0 mi Calm Calm - N/A   Clear
6:15 AM 25.3 °F - 23.5 °F 93% 29.91 in 10.0 mi Calm Calm - N/A   Clear
6:34 AM 24.6 °F - 23.0 °F 94% 29.92 in 10.0 mi Calm Calm - N/A   Clear
6:54 AM 24.6 °F - 23.0 °F 94% 29.93 in 10.0 mi Calm Calm - N/A   Clear
7:14 AM 24.1 °F - 22.6 °F 94% 29.93 in 7.0 mi Calm Calm - N/A   Clear
7:34 AM 24.4 °F - 23.0 °F 94% 29.94 in 10.0 mi Calm Calm - N/A   Clear
7:54 AM 25.7 °F - 23.9 °F 93% 29.94 in 10.0 mi Calm Calm - N/A   Clear
8:15 AM 27.3 °F - 25.3 °F 92% 29.94 in 10.0 mi Calm Calm - N/A   Clear
8:34 AM 29.5 °F - 26.8 °F 90% 29.95 in 10.0 mi Calm Calm - N/A   Clear
8:54 AM 31.6 °F - 26.6 °F 82% 29.95 in 10.0 mi Calm Calm - N/A   Clear
9:14 AM 33.8 °F - 24.8 °F 70% 29.96 in 10.0 mi Calm Calm - N/A   Clear
9:34 AM 36.0 °F 32.1 °F 24.3 °F 63% 29.96 in 10.0 mi South 4.6 mph - N/A   Clear
9:55 AM 37.9 °F 34.4 °F 23.9 °F 57% 29.96 in 10.0 mi South 4.6 mph - N/A   Clear
10:14 AM 39.9 °F 35.8 °F 24.6 °F 54% 29.96 in 10.0 mi SSW 5.8 mph - N/A   Clear
10:34 AM 41.7 °F 37.3 °F 23.2 °F 48% 29.96 in 10.0 mi SSW 6.9 mph - N/A   Clear
10:55 AM 43.5 °F 40.9 °F 23.5 °F 45% 29.96 in 10.0 mi WSW 4.6 mph - N/A   Clear
11:14 AM 45.0 °F 40.6 °F 22.8 °F 42% 29.96 in 10.0 mi SW 8.1 mph - N/A   Clear
11:55 AM 46.4 °F 42.4 °F 23.4 °F 40% 29.96 in 10.0 mi WSW 8.1 mph - N/A   Clear
12:14 PM 46.9 °F - 23.9 °F 40% 29.95 in 10.0 mi SW 9.2 mph 17.3 mph N/A   Clear
12:34 PM 48.0 °F - 23.9 °F 39% 29.95 in 10.0 mi SW 15.0 mph 21.9 mph N/A   Clear
12:54 PM 48.7 °F - 23.7 °F 38% 29.94 in 10.0 mi SW 9.2 mph - N/A   Clear
1:14 PM 48.2 °F - 23.5 °F 38% 29.93 in 10.0 mi SW 9.2 mph 16.1 mph N/A   Clear
1:35 PM 48.9 °F - 23.5 °F 37% 29.93 in 10.0 mi SSW 10.4 mph 16.1 mph N/A   Clear
1:54 PM 49.1 °F - 23.2 °F 36% 29.92 in 10.0 mi SW 11.5 mph - N/A   Scattered Clouds
2:14 PM 50.7 °F - 23.0 °F 34% 29.92 in 10.0 mi SW 5.8 mph 16.1 mph N/A   Clear
2:35 PM 51.6 °F - 23.0 °F 33% 29.92 in 10.0 mi WSW 11.5 mph 19.6 mph N/A   Clear
2:54 PM 50.9 °F - 22.1 °F 32% 29.91 in 10.0 mi WSW 10.4 mph 19.6 mph N/A   Clear
3:14 PM 51.3 °F - 22.5 °F 32% 29.90 in 10.0 mi WSW 10.4 mph 23.0 mph N/A   Clear
3:35 PM 51.8 °F - 22.6 °F 32% 29.89 in 10.0 mi SW 12.7 mph 17.3 mph N/A   Clear
3:54 PM 52.0 °F - 22.8 °F 32% 29.88 in 10.0 mi WSW 8.1 mph 19.6 mph N/A   Clear
4:14 PM 52.2 °F - 23.0 °F 32% 29.87 in 10.0 mi SW 10.4 mph 17.3 mph N/A   Clear
4:35 PM 52.5 °F - 23.4 °F 32% 29.86 in 10.0 mi SW 8.1 mph 17.3 mph N/A   Clear
4:54 PM 52.7 °F - 23.9 °F 33% 29.85 in 10.0 mi SW 8.1 mph 18.4 mph N/A   Clear
5:15 PM 52.7 °F - 24.3 °F 33% 29.83 in 10.0 mi SW 8.1 mph - N/A   Clear
5:35 PM 52.7 °F - 23.9 °F 33% 29.82 in 10.0 mi WSW 10.4 mph 16.1 mph N/A   Clear
5:54 PM 53.4 °F - 23.7 °F 32% 29.82 in 10.0 mi South 10.4 mph 16.1 mph N/A   Clear
6:15 PM 52.2 °F - 23.2 °F 32% 29.82 in 10.0 mi SSW 11.5 mph - N/A   Scattered Clouds
6:35 PM 51.8 °F - 23.5 °F 33% 29.80 in 10.0 mi SSW 6.9 mph - N/A   Mostly Cloudy
6:54 PM 51.4 °F - 23.9 °F 34% 29.79 in 10.0 mi SSW 6.9 mph - N/A   Mostly Cloudy
7:15 PM 51.3 °F - 23.9 °F 34% 29.78 in 10.0 mi South 6.9 mph - N/A   Mostly Cloudy
7:34 PM 51.4 °F - 23.9 °F 34% 29.78 in 10.0 mi SSW 5.8 mph - N/A   Scattered Clouds
7:54 PM 50.4 °F - 23.5 °F 35% 29.77 in 10.0 mi SSW 5.8 mph - N/A   Clear
8:15 PM 49.8 °F - 23.2 °F 35% 29.76 in 10.0 mi SSW 5.8 mph - N/A   Scattered Clouds
8:34 PM 49.5 °F - 23.4 °F 36% 29.76 in 10.0 mi South 6.9 mph - N/A   Mostly Cloudy
8:55 PM 49.1 °F - 23.5 °F 37% 29.76 in 10.0 mi South 6.9 mph - N/A   Overcast
9:15 PM 49.1 °F - 22.6 °F 35% 29.76 in 10.0 mi South 6.9 mph - N/A   Overcast
9:34 PM 49.1 °F - 22.5 °F 35% 29.77 in 10.0 mi South 5.8 mph - N/A   Overcast
9:55 PM 48.4 °F - 23.4 °F 37% 29.77 in 10.0 mi South 6.9 mph - N/A   Overcast
10:15 PM 47.8 °F - 23.9 °F 39% 29.76 in 10.0 mi South 6.9 mph - N/A   Mostly Cloudy
10:34 PM 47.7 °F - 24.6 °F 41% 29.75 in 10.0 mi South 8.1 mph - N/A   Scattered Clouds
10:55 PM 47.5 °F - 25.2 °F 42% 29.74 in 10.0 mi South 6.9 mph - N/A   Clear
11:15 PM 47.3 °F - 26.1 °F 44% 29.73 in 10.0 mi South 8.1 mph - N/A   Clear
11:34 PM 47.3 °F - 26.6 °F 45% 29.72 in 10.0 mi South 8.1 mph - N/A   Clear
11:54 PM 47.3 °F - 27.0 °F 45% 29.71 in 10.0 mi South 6.9 mph - N/A   Scattered Clouds